JST166 NZHN-YSSY

Flight info

Callsign JST166
Flight time 3h 28m
Altitude 35000
Route LEKUS Y562 MADEP/N0459F360 N774 MARLN
Aircraft A320/M-SDE3FGHIRWY/LB1

Departure

Time 2026-04-19 00:20
Airport Hamilton International Airport (NZHN)

Arrival

Time 2026-04-19 03:48
Airport Sydney Kingsford Smith International Airport (YSSY)
Time Latitude Longitude Altitude Speed Heading
2026-04-19 00:05 -37.86600 175.33554 168 ft 0 kts 92°
2026-04-19 00:13 -37.86605 175.33554 110 ft 4 kts 30°
2026-04-19 00:13 -37.86604 175.33553 108 ft 2 kts 10°
2026-04-19 00:13 -37.86610 175.33552 156 ft 0 kts 20°
2026-04-19 00:15 -37.86599 175.33549 0 ft 0 kts 339°
2026-04-19 00:16 -37.86564 175.33480 133 ft 23 kts 294°
2026-04-19 00:16 -37.86541 175.33383 176 ft 7 kts 283°
2026-04-19 00:16 -37.86529 175.33319 177 ft 8 kts 278°
2026-04-19 00:17 -37.86558 175.33263 176 ft 9 kts 206°
2026-04-19 00:17 -37.86628 175.33237 175 ft 14 kts 195°
2026-04-19 00:17 -37.86773 175.33188 175 ft 24 kts 194°
2026-04-19 00:17 -37.86936 175.33125 175 ft 25 kts 200°
2026-04-19 00:18 -37.87108 175.33054 174 ft 27 kts 197°
2026-04-19 00:18 -37.87291 175.32994 174 ft 24 kts 194°
2026-04-19 00:18 -37.87421 175.32963 174 ft 11 kts 155°
2026-04-19 00:18 -37.87468 175.32941 173 ft 7 kts 301°
2026-04-19 00:19 -37.87439 175.32944 173 ft 6 kts 13°
2026-04-19 00:19 -37.87220 175.33025 174 ft 67 kts 15°
2026-04-19 00:19 -37.86576 175.33257 176 ft 122 kts 15°
2026-04-19 00:19 -37.85616 175.33624 245 ft 155 kts 19°
2026-04-19 00:20 -37.84593 175.34034 736 ft 157 kts 17°
2026-04-19 00:20 -37.83504 175.34446 1211 ft 168 kts 18°
2026-04-19 00:20 -37.82372 175.34882 1804 ft 169 kts 17°
2026-04-19 00:20 -37.81186 175.35296 2347 ft 191 kts 16°
2026-04-19 00:21 -37.79827 175.35768 2822 ft 213 kts 17°
2026-04-19 00:21 -37.78303 175.36302 2989 ft 239 kts 19°
2026-04-19 00:21 -37.76710 175.36864 3001 ft 237 kts 21°
2026-04-19 00:21 -37.75104 175.37421 3015 ft 243 kts 19°
2026-04-19 00:22 -37.73329 175.37398 3577 ft 270 kts 352°
2026-04-19 00:22 -37.71587 175.36286 4245 ft 294 kts 325°
2026-04-19 00:22 -37.70294 175.34224 4931 ft 308 kts 292°
2026-04-19 00:22 -37.69885 175.31828 5638 ft 303 kts 262°
2026-04-19 00:23 -37.70236 175.29244 6576 ft 292 kts 249°
2026-04-19 00:23 -37.70687 175.26760 7594 ft 286 kts 249°
2026-04-19 00:23 -37.71121 175.24342 8577 ft 280 kts 249°
2026-04-19 00:23 -37.71544 175.21969 9544 ft 274 kts 250°
2026-04-19 00:24 -37.71965 175.19614 10216 ft 281 kts 251°
2026-04-19 00:24 -37.72420 175.17124 10429 ft 300 kts 253°
2026-04-19 00:24 -37.72892 175.14522 11030 ft 305 kts 255°
2026-04-19 00:24 -37.73360 175.11905 11749 ft 306 kts 257°
2026-04-19 00:25 -37.73826 175.09274 12422 ft 308 kts 259°
2026-04-19 00:25 -37.74288 175.06652 12970 ft 313 kts 261°
2026-04-19 00:25 -37.74763 175.03939 13478 ft 320 kts 263°
2026-04-19 00:25 -37.75256 175.01121 13931 ft 329 kts 264°
2026-04-19 00:26 -37.75751 174.98288 14320 ft 338 kts 264°
2026-04-19 00:26 -37.76268 174.95342 14849 ft 342 kts 264°
2026-04-19 00:26 -37.76785 174.92414 15400 ft 346 kts 264°
2026-04-19 00:26 -37.77311 174.89441 15953 ft 348 kts 264°
2026-04-19 00:27 -37.77836 174.86448 16528 ft 350 kts 264°
2026-04-19 00:27 -37.78366 174.83419 17081 ft 353 kts 264°
2026-04-19 00:27 -37.78898 174.80379 17620 ft 356 kts 264°
2026-04-19 00:27 -37.79432 174.77317 18170 ft 358 kts 264°
2026-04-19 00:28 -37.79971 174.74227 18709 ft 361 kts 264°
2026-04-19 00:28 -37.80513 174.71116 19258 ft 364 kts 264°
2026-04-19 00:28 -37.81061 174.67984 19780 ft 367 kts 264°
2026-04-19 00:28 -37.81612 174.64816 20305 ft 370 kts 264°
2026-04-19 00:29 -37.82162 174.61634 20786 ft 373 kts 264°
2026-04-19 00:29 -37.82718 174.58405 21270 ft 375 kts 264°
2026-04-19 00:29 -37.83273 174.55174 21733 ft 378 kts 263°
2026-04-19 00:29 -37.83827 174.51954 22164 ft 381 kts 263°
2026-04-19 00:30 -37.84391 174.48676 22591 ft 384 kts 263°
2026-04-19 00:30 -37.84966 174.45326 23027 ft 386 kts 263°
2026-04-19 00:30 -37.85533 174.42021 23423 ft 389 kts 263°
2026-04-19 00:30 -37.86108 174.38666 23816 ft 391 kts 263°
2026-04-19 00:31 -37.86682 174.35294 24191 ft 394 kts 263°
2026-04-19 00:31 -37.87258 174.31900 24566 ft 396 kts 263°
2026-04-19 00:31 -37.87841 174.28475 24938 ft 399 kts 263°
2026-04-19 00:31 -37.88430 174.25031 25297 ft 401 kts 263°
2026-04-19 00:32 -37.89021 174.21577 25648 ft 403 kts 263°
2026-04-19 00:32 -37.89594 174.18085 25994 ft 403 kts 266°
2026-04-19 00:32 -37.89668 174.14592 26314 ft 396 kts 281°
2026-04-19 00:32 -37.88964 174.11260 26640 ft 391 kts 297°
2026-04-19 00:33 -37.87741 174.08193 26974 ft 392 kts 300°
2026-04-19 00:33 -37.86458 174.05139 27300 ft 393 kts 300°
2026-04-19 00:33 -37.85148 174.02086 27631 ft 395 kts 300°
2026-04-19 00:33 -37.83827 173.99027 27961 ft 396 kts 300°
2026-04-19 00:34 -37.81185 173.92880 28573 ft 400 kts 300°
2026-04-19 00:34 -37.79867 173.89786 28984 ft 398 kts 300°
2026-04-19 00:34 -37.78578 173.86752 29418 ft 397 kts 300°
2026-04-19 00:35 -37.77270 173.83680 29861 ft 395 kts 301°
2026-04-19 00:35 -37.75972 173.80638 30247 ft 395 kts 301°
2026-04-19 00:35 -37.74663 173.77579 30542 ft 396 kts 301°
2026-04-19 00:35 -37.73352 173.74513 30911 ft 395 kts 301°
2026-04-19 00:36 -37.72047 173.71465 31292 ft 394 kts 301°
2026-04-19 00:36 -37.70741 173.68419 31705 ft 393 kts 301°
2026-04-19 00:36 -37.69443 173.65396 32121 ft 391 kts 301°
2026-04-19 00:36 -37.68147 173.62379 32511 ft 390 kts 301°
2026-04-19 00:37 -37.66856 173.59382 32921 ft 388 kts 301°
2026-04-19 00:37 -37.65569 173.56395 33310 ft 386 kts 300°
2026-04-19 00:37 -37.64288 173.53427 33695 ft 385 kts 300°
2026-04-19 00:37 -37.63013 173.50474 34060 ft 383 kts 300°
2026-04-19 00:38 -37.62169 173.48520 34288 ft 382 kts 300°
2026-04-19 00:38 -37.60483 173.44618 34663 ft 382 kts 300°
2026-04-19 00:38 -37.58338 173.39658 34729 ft 389 kts 300°
2026-04-19 00:39 -37.55725 173.33646 34722 ft 392 kts 300°
2026-04-19 00:39 -37.53103 173.27612 34727 ft 393 kts 300°
2026-04-19 00:40 -37.50477 173.21564 34734 ft 393 kts 300°
2026-04-19 00:40 -37.47848 173.15522 34729 ft 393 kts 300°
2026-04-19 00:41 -37.45221 173.09527 34737 ft 394 kts 300°
2026-04-19 00:41 -37.42574 173.03488 34737 ft 394 kts 300°
2026-04-19 00:42 -37.39930 172.97453 34740 ft 394 kts 300°
2026-04-19 00:42 -37.37279 172.91426 34741 ft 394 kts 300°
2026-04-19 00:43 -37.34630 172.85392 34741 ft 394 kts 300°
2026-04-19 00:43 -37.31981 172.79376 34744 ft 394 kts 300°
2026-04-19 00:44 -37.29316 172.73353 34742 ft 394 kts 300°
2026-04-19 00:44 -37.26646 172.67341 34745 ft 394 kts 300°
2026-04-19 00:45 -37.24000 172.61370 34748 ft 394 kts 300°
2026-04-19 00:45 -37.21344 172.55368 34756 ft 393 kts 301°
2026-04-19 00:46 -37.18694 172.49410 34754 ft 389 kts 301°
2026-04-19 00:46 -37.16051 172.43488 34750 ft 388 kts 301°
2026-04-19 00:47 -37.13414 172.37589 34749 ft 388 kts 301°
2026-04-19 00:47 -37.10767 172.31688 34748 ft 388 kts 301°
2026-04-19 00:48 -37.08120 172.25801 34743 ft 388 kts 301°
2026-04-19 00:48 -37.05485 172.19944 34741 ft 388 kts 301°
2026-04-19 00:49 -37.02841 172.14051 34745 ft 388 kts 301°
2026-04-19 00:49 -37.00190 172.08173 34741 ft 388 kts 302°
2026-04-19 00:50 -36.97543 172.02307 34744 ft 388 kts 301°
2026-04-19 00:50 -36.94885 171.96415 34714 ft 389 kts 300°
2026-04-19 00:51 -36.92212 171.90518 34717 ft 391 kts 300°
2026-04-19 00:51 -36.89522 171.84598 34719 ft 392 kts 300°
2026-04-19 00:52 -36.86827 171.78670 34724 ft 392 kts 300°
2026-04-19 00:52 -36.84131 171.72738 34731 ft 393 kts 300°
2026-04-19 00:53 -36.81431 171.66819 34731 ft 393 kts 300°
2026-04-19 00:53 -36.78736 171.60941 34736 ft 393 kts 300°
2026-04-19 00:54 -36.76009 171.54980 34732 ft 393 kts 300°
2026-04-19 00:54 -36.73315 171.49113 34733 ft 393 kts 301°
2026-04-19 00:55 -36.70593 171.43198 34736 ft 393 kts 301°
2026-04-19 00:55 -36.67883 171.37293 34740 ft 392 kts 303°
2026-04-19 00:56 -36.65155 171.31387 34742 ft 392 kts 303°
2026-04-19 00:56 -36.62434 171.25501 34740 ft 392 kts 303°
2026-04-19 00:57 -36.59712 171.19632 34743 ft 392 kts 303°
2026-04-19 00:57 -36.56980 171.13733 35001 ft 394 kts 303°
2026-04-19 00:58 -36.55608 171.10777 35289 ft 393 kts 303°
2026-04-19 00:58 -36.54239 171.07842 35612 ft 391 kts 303°
2026-04-19 00:58 -36.52883 171.04930 35719 ft 390 kts 302°
2026-04-19 00:58 -36.51529 171.02020 35727 ft 388 kts 302°
2026-04-19 00:59 -36.48821 170.96202 35728 ft 387 kts 302°
2026-04-19 00:59 -36.46132 170.90452 35727 ft 387 kts 302°
2026-04-19 01:00 -36.43425 170.84672 35729 ft 387 kts 302°
2026-04-19 01:00 -36.40738 170.78926 35731 ft 382 kts 302°
2026-04-19 01:01 -36.38568 170.72913 35734 ft 386 kts 287°
2026-04-19 01:01 -36.37969 170.66225 35735 ft 391 kts 279°
2026-04-19 01:02 -36.37548 170.59480 35737 ft 392 kts 279°
2026-04-19 01:02 -36.37116 170.52742 35739 ft 392 kts 279°
2026-04-19 01:03 -36.36690 170.46048 35740 ft 392 kts 279°
2026-04-19 01:03 -36.36260 170.39298 35741 ft 392 kts 279°
2026-04-19 01:04 -36.35822 170.32551 35742 ft 392 kts 279°
2026-04-19 01:04 -36.35376 170.25811 35743 ft 392 kts 280°
2026-04-19 01:05 -36.34923 170.19078 35740 ft 392 kts 280°
2026-04-19 01:05 -36.34476 170.12344 35731 ft 392 kts 280°
2026-04-19 01:06 -36.34024 170.05593 35725 ft 392 kts 280°
2026-04-19 01:06 -36.33570 169.98858 35723 ft 392 kts 280°
2026-04-19 01:07 -36.33110 169.92119 35723 ft 392 kts 280°
2026-04-19 01:07 -36.32646 169.85390 35720 ft 392 kts 280°
2026-04-19 01:08 -36.32181 169.78696 35718 ft 392 kts 280°
2026-04-19 01:08 -36.31704 169.71980 35717 ft 392 kts 280°
2026-04-19 01:09 -36.31221 169.65243 35717 ft 392 kts 280°
2026-04-19 01:09 -36.30737 169.58511 35717 ft 392 kts 280°
2026-04-19 01:10 -36.30258 169.51782 35718 ft 392 kts 279°
2026-04-19 01:10 -36.29785 169.45110 35722 ft 391 kts 279°
2026-04-19 01:11 -36.29291 169.38359 35723 ft 390 kts 280°
2026-04-19 01:11 -36.28798 169.31711 35722 ft 390 kts 279°
2026-04-19 01:12 -36.28296 169.24984 35721 ft 389 kts 280°
2026-04-19 01:12 -36.27795 169.18322 35720 ft 389 kts 280°
2026-04-19 01:13 -36.27293 169.11638 35719 ft 389 kts 280°
2026-04-19 01:13 -36.26787 169.04976 35719 ft 389 kts 280°
2026-04-19 01:14 -36.26273 168.98298 35718 ft 389 kts 280°
2026-04-19 01:14 -36.25755 168.91608 35718 ft 389 kts 280°
2026-04-19 01:15 -36.25239 168.84935 35717 ft 389 kts 279°
2026-04-19 01:15 -36.24724 168.78301 35714 ft 389 kts 279°
2026-04-19 01:16 -36.24201 168.71614 35714 ft 390 kts 280°
2026-04-19 01:16 -36.23671 168.64930 35715 ft 390 kts 280°
2026-04-19 01:17 -36.23139 168.58239 35715 ft 390 kts 280°
2026-04-19 01:17 -36.22598 168.51546 35718 ft 390 kts 280°
2026-04-19 01:18 -36.22051 168.44854 35717 ft 390 kts 280°
2026-04-19 01:18 -36.21508 168.38167 35717 ft 390 kts 280°
2026-04-19 01:19 -36.20961 168.31485 35718 ft 390 kts 280°
2026-04-19 01:19 -36.20411 168.24814 35717 ft 390 kts 280°
2026-04-19 01:20 -36.19859 168.18120 35718 ft 390 kts 280°
2026-04-19 01:20 -36.19296 168.11456 35718 ft 390 kts 280°
2026-04-19 01:21 -36.18724 168.04768 35718 ft 390 kts 280°
2026-04-19 01:21 -36.18158 167.98129 35718 ft 390 kts 280°
2026-04-19 01:22 -36.17588 167.91452 35718 ft 390 kts 280°
2026-04-19 01:22 -36.17014 167.84778 35720 ft 390 kts 280°
2026-04-19 01:23 -36.16434 167.78112 35718 ft 390 kts 280°
2026-04-19 01:23 -36.15856 167.71437 35719 ft 390 kts 280°
2026-04-19 01:24 -36.15364 167.65889 35719 ft 390 kts 280°
2026-04-19 01:24 -36.14778 167.59216 35719 ft 390 kts 280°
2026-04-19 01:25 -36.14194 167.52541 35719 ft 390 kts 280°
2026-04-19 01:25 -36.13602 167.45879 35727 ft 389 kts 279°
2026-04-19 01:26 -36.12906 167.38176 35726 ft 387 kts 279°
2026-04-19 01:26 -36.12307 167.31560 35727 ft 387 kts 279°
2026-04-19 01:27 -36.11798 167.26052 35725 ft 386 kts 279°
2026-04-19 01:27 -36.11188 167.19470 35722 ft 386 kts 279°
2026-04-19 01:28 -36.10575 167.12832 35721 ft 386 kts 279°
2026-04-19 01:28 -36.09971 167.06280 35724 ft 386 kts 279°
2026-04-19 01:29 -36.09350 166.99649 35722 ft 386 kts 280°
2026-04-19 01:29 -36.08738 166.93098 35720 ft 386 kts 279°
2026-04-19 01:30 -36.08118 166.86513 35720 ft 386 kts 280°
2026-04-19 01:30 -36.07491 166.79933 35723 ft 385 kts 280°
2026-04-19 01:31 -36.06861 166.73363 35724 ft 385 kts 280°
2026-04-19 01:31 -36.06237 166.66805 35722 ft 384 kts 280°
2026-04-19 01:32 -36.05600 166.60245 35722 ft 384 kts 280°
2026-04-19 01:32 -36.04959 166.53698 35721 ft 384 kts 280°
2026-04-19 01:33 -36.04318 166.47155 35721 ft 384 kts 280°
2026-04-19 01:33 -36.03675 166.40603 35720 ft 384 kts 280°
2026-04-19 01:34 -36.03024 166.34050 35720 ft 384 kts 280°
2026-04-19 01:34 -36.02376 166.27508 35720 ft 384 kts 280°
2026-04-19 01:35 -36.01724 166.20965 35722 ft 384 kts 280°
2026-04-19 01:35 -36.01069 166.14470 35707 ft 384 kts 280°
2026-04-19 01:36 -36.00404 166.07938 35700 ft 384 kts 280°
2026-04-19 01:36 -35.99739 166.01395 35696 ft 384 kts 280°
2026-04-19 01:37 -35.99074 165.94870 35694 ft 384 kts 280°
2026-04-19 01:37 -35.98404 165.88329 35693 ft 383 kts 280°
2026-04-19 01:38 -35.97727 165.81780 35693 ft 383 kts 280°
2026-04-19 01:38 -35.97049 165.75291 35692 ft 383 kts 281°
2026-04-19 01:39 -35.96366 165.68759 35692 ft 383 kts 280°
2026-04-19 01:39 -35.95680 165.62241 35692 ft 383 kts 281°
2026-04-19 01:40 -35.94985 165.55671 35697 ft 383 kts 280°
2026-04-19 01:40 -35.94647 165.52468 35852 ft 381 kts 279°
2026-04-19 01:40 -35.94306 165.49238 35990 ft 381 kts 279°
2026-04-19 01:41 -35.93616 165.42738 36010 ft 381 kts 279°
2026-04-19 01:41 -35.92919 165.36257 36018 ft 381 kts 279°
2026-04-19 01:42 -35.92213 165.29779 36022 ft 380 kts 279°
2026-04-19 01:43 -35.91159 165.20086 36022 ft 380 kts 279°
2026-04-19 01:43 -35.90450 165.13630 36022 ft 380 kts 279°
2026-04-19 01:44 -35.89740 165.07169 36022 ft 380 kts 279°
2026-04-19 01:44 -35.89026 165.00714 36021 ft 380 kts 279°
2026-04-19 01:45 -35.88314 164.94301 36021 ft 380 kts 279°
2026-04-19 01:45 -35.87594 164.87817 36026 ft 379 kts 278°
2026-04-19 01:46 -35.86873 164.81393 36028 ft 378 kts 278°
2026-04-19 01:46 -35.86154 164.75017 36028 ft 377 kts 278°
2026-04-19 01:47 -35.85433 164.68618 36027 ft 376 kts 278°
2026-04-19 01:47 -35.84706 164.62224 36024 ft 376 kts 278°
2026-04-19 01:48 -35.83981 164.55841 36024 ft 376 kts 278°
2026-04-19 01:48 -35.83247 164.49461 36023 ft 376 kts 278°
2026-04-19 01:49 -35.82520 164.43126 36022 ft 376 kts 278°
2026-04-19 01:49 -35.81779 164.36749 36021 ft 376 kts 278°
2026-04-19 01:50 -35.81033 164.30379 36020 ft 376 kts 278°
2026-04-19 01:50 -35.80286 164.24016 36020 ft 376 kts 278°
2026-04-19 01:51 -35.79532 164.17645 36020 ft 376 kts 278°
2026-04-19 01:51 -35.78786 164.11285 36020 ft 376 kts 278°
2026-04-19 01:52 -35.78034 164.04906 36020 ft 376 kts 278°
2026-04-19 01:52 -35.77274 163.98535 36020 ft 375 kts 279°
2026-04-19 01:53 -35.76510 163.92180 36020 ft 375 kts 279°
2026-04-19 01:53 -35.75749 163.85853 36019 ft 375 kts 279°
2026-04-19 01:54 -35.74982 163.79488 36020 ft 375 kts 279°
2026-04-19 01:54 -35.74205 163.73099 36020 ft 375 kts 279°
2026-04-19 01:55 -35.73435 163.66792 36020 ft 375 kts 279°
2026-04-19 01:55 -35.72649 163.60385 36024 ft 375 kts 278°
2026-04-19 01:56 -35.71876 163.54106 36027 ft 374 kts 278°
2026-04-19 01:56 -35.71098 163.47805 36026 ft 373 kts 278°
2026-04-19 01:57 -35.70314 163.41493 36025 ft 372 kts 278°
2026-04-19 01:57 -35.69529 163.35202 36023 ft 372 kts 278°
2026-04-19 01:58 -35.68738 163.28914 36022 ft 372 kts 278°
2026-04-19 01:58 -35.67948 163.22623 36022 ft 372 kts 278°
2026-04-19 01:59 -35.67159 163.16344 36021 ft 372 kts 278°
2026-04-19 01:59 -35.66368 163.10070 36020 ft 372 kts 278°
2026-04-19 02:00 -35.65565 163.03802 36020 ft 371 kts 278°
2026-04-19 02:00 -35.64761 162.97545 36019 ft 371 kts 278°
2026-04-19 02:01 -35.63957 162.91274 36019 ft 371 kts 278°
2026-04-19 02:01 -35.63148 162.84994 36019 ft 371 kts 278°
2026-04-19 02:02 -35.62333 162.78715 36018 ft 371 kts 278°
2026-04-19 02:02 -35.61515 162.72455 36018 ft 371 kts 278°
2026-04-19 02:03 -35.60690 162.66192 36018 ft 371 kts 278°
2026-04-19 02:03 -35.59873 162.59953 36018 ft 371 kts 278°
2026-04-19 02:04 -35.59048 162.53695 36017 ft 371 kts 278°
2026-04-19 02:04 -35.58215 162.47433 36018 ft 371 kts 278°
2026-04-19 02:05 -35.57382 162.41171 36018 ft 371 kts 278°
2026-04-19 02:05 -35.56825 162.37007 36016 ft 371 kts 278°
2026-04-19 02:06 -35.56574 162.35142 36013 ft 371 kts 278°
2026-04-19 02:06 -35.55725 162.28888 36004 ft 371 kts 277°
2026-04-19 02:07 -35.54888 162.22651 36000 ft 371 kts 278°
2026-04-19 02:07 -35.54039 162.16411 36000 ft 371 kts 278°
2026-04-19 02:08 -35.53195 162.10157 35993 ft 371 kts 278°
2026-04-19 02:08 -35.52344 162.03927 35990 ft 371 kts 278°
2026-04-19 02:09 -35.51489 161.97694 35996 ft 371 kts 278°
2026-04-19 02:09 -35.50631 161.91437 35987 ft 371 kts 278°
2026-04-19 02:10 -35.49774 161.85210 35990 ft 371 kts 278°
2026-04-19 02:10 -35.48914 161.78977 35990 ft 371 kts 278°
2026-04-19 02:11 -35.48050 161.72772 35997 ft 370 kts 277°
2026-04-19 02:11 -35.47324 161.67583 35995 ft 370 kts 277°
2026-04-19 02:12 -35.46917 161.64694 35999 ft 369 kts 277°
2026-04-19 02:12 -35.46043 161.58494 35997 ft 369 kts 277°
2026-04-19 02:13 -35.45168 161.52300 35998 ft 368 kts 277°
2026-04-19 02:13 -35.44299 161.46107 35994 ft 368 kts 277°
2026-04-19 02:14 -35.43430 161.39965 35993 ft 368 kts 277°
2026-04-19 02:14 -35.42547 161.33783 35998 ft 368 kts 277°
2026-04-19 02:15 -35.41659 161.27601 35994 ft 368 kts 277°
2026-04-19 02:15 -35.40775 161.21427 35995 ft 368 kts 277°
2026-04-19 02:16 -35.39887 161.15254 35995 ft 368 kts 277°
2026-04-19 02:16 -35.38995 161.09086 35990 ft 368 kts 277°
2026-04-19 02:17 -35.38095 161.02912 35989 ft 368 kts 277°
2026-04-19 02:17 -35.37198 160.96751 35988 ft 367 kts 277°
2026-04-19 02:18 -35.36300 160.90572 35993 ft 367 kts 277°
2026-04-19 02:18 -35.35400 160.84458 35989 ft 367 kts 277°
2026-04-19 02:19 -35.34489 160.78296 35985 ft 367 kts 277°
2026-04-19 02:19 -35.33575 160.72122 35985 ft 367 kts 277°
2026-04-19 02:20 -35.32205 160.62917 35985 ft 367 kts 277°
2026-04-19 02:20 -35.31281 160.56745 35985 ft 367 kts 277°
2026-04-19 02:21 -35.30361 160.50599 35980 ft 368 kts 276°
2026-04-19 02:21 -35.29437 160.44438 35977 ft 368 kts 276°
2026-04-19 02:22 -35.28506 160.38271 35980 ft 369 kts 276°
2026-04-19 02:22 -35.27574 160.32108 35982 ft 369 kts 276°
2026-04-19 02:23 -35.26633 160.25925 35980 ft 369 kts 276°
2026-04-19 02:23 -35.25688 160.19768 35985 ft 369 kts 276°
2026-04-19 02:24 -35.24744 160.13577 35983 ft 369 kts 276°
2026-04-19 02:24 -35.23800 160.07398 35987 ft 369 kts 276°
2026-04-19 02:25 -35.22857 160.01264 35985 ft 369 kts 276°
2026-04-19 02:25 -35.21899 159.95079 35992 ft 369 kts 277°
2026-04-19 02:26 -35.20944 159.88913 35980 ft 370 kts 276°
2026-04-19 02:26 -35.19979 159.82708 35977 ft 371 kts 276°
2026-04-19 02:27 -35.19008 159.76510 35980 ft 371 kts 276°
2026-04-19 02:27 -35.18029 159.70321 35984 ft 372 kts 276°
2026-04-19 02:28 -35.17050 159.64105 35985 ft 372 kts 276°
2026-04-19 02:28 -35.16072 159.57910 35986 ft 372 kts 276°
2026-04-19 02:29 -35.15090 159.51731 35987 ft 372 kts 276°
2026-04-19 02:29 -35.14104 159.45529 35985 ft 372 kts 276°
2026-04-19 02:30 -35.13112 159.39338 35990 ft 372 kts 276°
2026-04-19 02:30 -35.12116 159.33124 35987 ft 372 kts 276°
2026-04-19 02:31 -35.11129 159.26915 35994 ft 372 kts 276°
2026-04-19 02:31 -35.10130 159.20705 35993 ft 373 kts 276°
2026-04-19 02:32 -35.09117 159.14488 35993 ft 373 kts 276°
2026-04-19 02:32 -35.08107 159.08306 35993 ft 372 kts 276°
2026-04-19 02:33 -35.07101 159.02094 35993 ft 372 kts 276°
2026-04-19 02:33 -35.06085 158.95904 35985 ft 372 kts 276°
2026-04-19 02:34 -35.05065 158.89703 35988 ft 372 kts 276°
2026-04-19 02:34 -35.04047 158.83496 35990 ft 373 kts 276°
2026-04-19 02:35 -35.03032 158.77333 35992 ft 373 kts 276°
2026-04-19 02:35 -35.01997 158.71134 35990 ft 373 kts 276°
2026-04-19 02:36 -35.00964 158.64941 35991 ft 373 kts 276°
2026-04-19 02:36 -34.99928 158.58745 35990 ft 374 kts 276°
2026-04-19 02:37 -34.98895 158.52518 35994 ft 374 kts 276°
2026-04-19 02:37 -34.98022 158.47300 35991 ft 374 kts 276°
2026-04-19 02:38 -34.96983 158.41152 35992 ft 374 kts 276°
2026-04-19 02:38 -34.95754 158.33878 35992 ft 374 kts 276°
2026-04-19 02:39 -34.94881 158.28710 35988 ft 374 kts 276°
2026-04-19 02:39 -34.93832 158.22508 35985 ft 374 kts 276°
2026-04-19 02:40 -34.92773 158.16307 35989 ft 374 kts 276°
2026-04-19 02:40 -34.91713 158.10113 35987 ft 374 kts 276°
2026-04-19 02:41 -34.90643 158.03904 35984 ft 374 kts 277°
2026-04-19 02:41 -34.89577 157.97724 35985 ft 374 kts 277°
2026-04-19 02:42 -34.88506 157.91515 35983 ft 374 kts 277°
2026-04-19 02:42 -34.87427 157.85312 35985 ft 374 kts 277°
2026-04-19 02:43 -34.86347 157.79099 35985 ft 374 kts 277°
2026-04-19 02:43 -34.85283 157.72947 35991 ft 374 kts 277°
2026-04-19 02:44 -34.84200 157.66737 35986 ft 374 kts 277°
2026-04-19 02:44 -34.83111 157.60540 35991 ft 375 kts 277°
2026-04-19 02:45 -34.82011 157.54338 35986 ft 375 kts 277°
2026-04-19 02:45 -34.80914 157.48145 35993 ft 375 kts 277°
2026-04-19 02:46 -34.79817 157.41934 35986 ft 375 kts 277°
2026-04-19 02:46 -34.78715 157.35722 35977 ft 376 kts 277°
2026-04-19 02:47 -34.77607 157.29495 35979 ft 377 kts 277°
2026-04-19 02:47 -34.76491 157.23265 35980 ft 377 kts 277°
2026-04-19 02:48 -34.75367 157.17021 35987 ft 378 kts 277°
2026-04-19 02:48 -34.74242 157.10782 35984 ft 378 kts 277°
2026-04-19 02:49 -34.73123 157.04536 35992 ft 378 kts 277°
2026-04-19 02:49 -34.72005 156.98352 35990 ft 378 kts 277°
2026-04-19 02:50 -34.70867 156.92101 35986 ft 378 kts 277°
2026-04-19 02:51 -34.69155 156.82748 35990 ft 378 kts 277°
2026-04-19 02:51 -34.68019 156.76528 35979 ft 379 kts 277°
2026-04-19 02:52 -34.66873 156.70284 35982 ft 379 kts 277°
2026-04-19 02:52 -34.65716 156.64009 35979 ft 380 kts 277°
2026-04-19 02:53 -34.64599 156.57957 35986 ft 380 kts 277°
2026-04-19 02:53 -34.63436 156.51682 35986 ft 380 kts 277°
2026-04-19 02:54 -34.62271 156.45423 35983 ft 380 kts 277°
2026-04-19 02:54 -34.61099 156.39158 35989 ft 380 kts 277°
2026-04-19 02:55 -34.59936 156.32911 35988 ft 380 kts 277°
2026-04-19 02:55 -34.58760 156.26639 35985 ft 380 kts 277°
2026-04-19 02:56 -34.57588 156.20397 35985 ft 380 kts 277°
2026-04-19 02:56 -34.56416 156.14176 35987 ft 380 kts 278°
2026-04-19 02:57 -34.55223 156.07875 35988 ft 380 kts 278°
2026-04-19 02:57 -34.54032 156.01632 35989 ft 380 kts 278°
2026-04-19 02:58 -34.52841 155.95402 35984 ft 380 kts 278°
2026-04-19 02:58 -34.51652 155.89158 35984 ft 380 kts 278°
2026-04-19 02:59 -34.50479 155.82998 35983 ft 380 kts 278°
2026-04-19 02:59 -34.49273 155.76707 35983 ft 380 kts 278°
2026-04-19 03:00 -34.48070 155.70466 35985 ft 380 kts 278°
2026-04-19 03:00 -34.46863 155.64221 35984 ft 380 kts 278°
2026-04-19 03:01 -34.45657 155.58005 35981 ft 380 kts 278°
2026-04-19 03:01 -34.45051 155.54880 36118 ft 381 kts 278°
2026-04-19 03:01 -34.44442 155.51739 36208 ft 384 kts 278°
2026-04-19 03:02 -34.43213 155.45435 36223 ft 385 kts 278°
2026-04-19 03:02 -34.41975 155.39109 36228 ft 385 kts 278°
2026-04-19 03:03 -34.40736 155.32810 36230 ft 384 kts 278°
2026-04-19 03:03 -34.39501 155.26510 36229 ft 384 kts 278°
2026-04-19 03:04 -34.38264 155.20223 36229 ft 384 kts 278°
2026-04-19 03:04 -34.37259 155.13923 36227 ft 380 kts 272°
2026-04-19 03:05 -34.36618 155.07593 36226 ft 380 kts 273°
2026-04-19 03:05 -34.35964 155.01240 36225 ft 380 kts 273°
2026-04-19 03:06 -34.35300 154.94892 36225 ft 380 kts 273°
2026-04-19 03:06 -34.34631 154.88527 36198 ft 382 kts 273°
2026-04-19 03:07 -34.33970 154.82144 36184 ft 383 kts 273°
2026-04-19 03:07 -34.33308 154.75757 36188 ft 384 kts 273°
2026-04-19 03:08 -34.32630 154.69343 36190 ft 384 kts 273°
2026-04-19 03:08 -34.31944 154.62936 36190 ft 384 kts 273°
2026-04-19 03:09 -34.31257 154.56509 36195 ft 384 kts 273°
2026-04-19 03:09 -34.30574 154.50120 36197 ft 385 kts 273°
2026-04-19 03:10 -34.29886 154.43714 36199 ft 385 kts 273°
2026-04-19 03:10 -34.29193 154.37298 36200 ft 385 kts 273°
2026-04-19 03:11 -34.28496 154.30879 36201 ft 385 kts 273°
2026-04-19 03:11 -34.27795 154.24473 36202 ft 385 kts 273°
2026-04-19 03:12 -34.27094 154.18057 36202 ft 385 kts 273°
2026-04-19 03:12 -34.26394 154.11714 36203 ft 385 kts 273°
2026-04-19 03:13 -34.25676 154.05285 36204 ft 385 kts 274°
2026-04-19 03:13 -34.24959 153.98931 36204 ft 385 kts 274°
2026-04-19 03:14 -34.24242 153.92509 36205 ft 385 kts 273°
2026-04-19 03:14 -34.23525 153.86094 36205 ft 385 kts 274°
2026-04-19 03:15 -34.22808 153.79734 36206 ft 385 kts 274°
2026-04-19 03:15 -34.22079 153.73298 36206 ft 385 kts 274°
2026-04-19 03:16 -34.21354 153.66901 36207 ft 385 kts 274°
2026-04-19 03:16 -34.20618 153.60478 36184 ft 387 kts 274°
2026-04-19 03:17 -34.19878 153.54029 36189 ft 388 kts 274°
2026-04-19 03:17 -34.19123 153.47566 36193 ft 389 kts 274°
2026-04-19 03:18 -34.18362 153.41089 36196 ft 390 kts 278°
2026-04-19 03:18 -34.17561 153.34637 36182 ft 389 kts 274°
2026-04-19 03:19 -34.16826 153.28155 36187 ft 389 kts 274°
2026-04-19 03:19 -34.16091 153.21694 36193 ft 389 kts 274°
2026-04-19 03:19 -34.15714 153.18463 36049 ft 387 kts 274°
2026-04-19 03:20 -34.15446 153.16206 35379 ft 392 kts 274°
2026-04-19 03:20 -34.15049 153.12884 34183 ft 403 kts 274°
2026-04-19 03:20 -34.14646 153.09536 32981 ft 402 kts 274°
2026-04-19 03:20 -34.14246 153.06230 32219 ft 392 kts 274°
2026-04-19 03:21 -34.13858 153.03059 31876 ft 373 kts 274°
2026-04-19 03:21 -34.13485 153.00027 31474 ft 358 kts 274°
2026-04-19 03:21 -34.13131 152.97109 31019 ft 346 kts 274°
2026-04-19 03:21 -34.12788 152.94260 30572 ft 339 kts 273°
2026-04-19 03:22 -34.12566 152.92389 30274 ft 340 kts 273°
2026-04-19 03:22 -34.12121 152.88643 29694 ft 341 kts 273°
2026-04-19 03:22 -34.11782 152.85817 29248 ft 341 kts 274°
2026-04-19 03:22 -34.11439 152.82976 28812 ft 341 kts 273°
2026-04-19 03:23 -34.11097 152.80144 28379 ft 342 kts 273°
2026-04-19 03:23 -34.10871 152.78261 28099 ft 341 kts 273°
2026-04-19 03:23 -34.10529 152.75418 27676 ft 341 kts 273°
2026-04-19 03:23 -34.10181 152.72595 27259 ft 340 kts 273°
2026-04-19 03:24 -34.09831 152.69772 26859 ft 339 kts 273°
2026-04-19 03:24 -34.09483 152.66954 26448 ft 338 kts 273°
2026-04-19 03:24 -34.09135 152.64148 26042 ft 336 kts 273°
2026-04-19 03:24 -34.08791 152.61384 25639 ft 334 kts 273°
2026-04-19 03:25 -34.08449 152.58610 25239 ft 332 kts 272°
2026-04-19 03:25 -34.08118 152.55887 24835 ft 330 kts 272°
2026-04-19 03:25 -34.07831 152.53169 24443 ft 326 kts 271°
2026-04-19 03:25 -34.07580 152.50442 24024 ft 324 kts 270°
2026-04-19 03:26 -34.07342 152.47739 23612 ft 321 kts 270°
2026-04-19 03:26 -34.07109 152.45090 23199 ft 320 kts 271°
2026-04-19 03:26 -34.06868 152.42412 22778 ft 318 kts 271°
2026-04-19 03:26 -34.06625 152.39780 22360 ft 317 kts 271°
2026-04-19 03:27 -34.06381 152.37143 21935 ft 316 kts 271°
2026-04-19 03:27 -34.06132 152.34500 21506 ft 315 kts 271°
2026-04-19 03:27 -34.05887 152.31903 21086 ft 314 kts 271°
2026-04-19 03:27 -34.05637 152.29283 20648 ft 313 kts 271°
2026-04-19 03:28 -34.05387 152.26679 20219 ft 312 kts 271°
2026-04-19 03:28 -34.05139 152.24115 19793 ft 311 kts 271°
2026-04-19 03:28 -34.04885 152.21493 19358 ft 310 kts 271°
2026-04-19 03:28 -34.04645 152.19013 18946 ft 309 kts 271°
2026-04-19 03:29 -34.04398 152.16435 18515 ft 308 kts 271°
2026-04-19 03:29 -34.04150 152.13880 18088 ft 306 kts 271°
2026-04-19 03:29 -34.03902 152.11332 17649 ft 305 kts 271°
2026-04-19 03:29 -34.03659 152.08818 17229 ft 304 kts 271°
2026-04-19 03:30 -34.03415 152.06296 16828 ft 303 kts 271°
2026-04-19 03:30 -34.03167 152.03766 16395 ft 302 kts 271°
2026-04-19 03:30 -34.02915 152.01245 15973 ft 301 kts 271°
2026-04-19 03:30 -34.02666 151.98784 15556 ft 300 kts 271°
2026-04-19 03:31 -34.02408 151.96266 15136 ft 298 kts 271°
2026-04-19 03:31 -34.02157 151.93783 14724 ft 298 kts 271°
2026-04-19 03:31 -34.01909 151.91342 14314 ft 297 kts 271°
2026-04-19 03:31 -34.01657 151.88858 13901 ft 297 kts 271°
2026-04-19 03:32 -34.01409 151.86393 13489 ft 296 kts 271°
2026-04-19 03:32 -34.01161 151.83925 13078 ft 296 kts 271°
2026-04-19 03:32 -34.00915 151.81471 12670 ft 295 kts 271°
2026-04-19 03:32 -34.00666 151.79027 12269 ft 295 kts 271°
2026-04-19 03:33 -34.00417 151.76585 11864 ft 294 kts 271°
2026-04-19 03:33 -34.00168 151.74149 11460 ft 293 kts 271°
2026-04-19 03:33 -33.99919 151.71730 11064 ft 292 kts 271°
2026-04-19 03:33 -33.99668 151.69270 10634 ft 292 kts 271°
2026-04-19 03:34 -33.99513 151.67740 10291 ft 295 kts 271°
2026-04-19 03:34 -33.99263 151.65330 10138 ft 285 kts 271°
2026-04-19 03:34 -33.99020 151.63004 9897 ft 280 kts 271°
2026-04-19 03:34 -33.98778 151.60677 9495 ft 280 kts 271°
2026-04-19 03:35 -33.98536 151.58358 9167 ft 278 kts 272°
2026-04-19 03:35 -33.98294 151.56050 8870 ft 274 kts 272°
2026-04-19 03:35 -33.98059 151.53816 8677 ft 269 kts 272°
2026-04-19 03:35 -33.97827 151.51586 8504 ft 268 kts 272°
2026-04-19 03:36 -33.97598 151.49376 8326 ft 267 kts 273°
2026-04-19 03:36 -33.97368 151.47145 8130 ft 269 kts 273°
2026-04-19 03:36 -33.97134 151.44889 7941 ft 274 kts 273°
2026-04-19 03:36 -33.96898 151.42606 7755 ft 277 kts 274°
2026-04-19 03:37 -33.96653 151.40296 7567 ft 277 kts 274°
2026-04-19 03:37 -33.96408 151.37991 7384 ft 277 kts 274°
2026-04-19 03:37 -33.96033 151.35709 7199 ft 281 kts 289°
2026-04-19 03:37 -33.94938 151.33792 7026 ft 286 kts 316°
2026-04-19 03:38 -33.93219 151.32609 6783 ft 285 kts 339°
2026-04-19 03:38 -33.91334 151.31883 6532 ft 281 kts 342°
2026-04-19 03:38 -33.89471 151.31215 6281 ft 277 kts 343°
2026-04-19 03:38 -33.87634 151.30555 6057 ft 273 kts 343°
2026-04-19 03:39 -33.85871 151.29917 5975 ft 262 kts 343°
2026-04-19 03:39 -33.84175 151.29298 5979 ft 251 kts 343°
2026-04-19 03:39 -33.82500 151.28687 5977 ft 250 kts 343°
2026-04-19 03:39 -33.80833 151.28078 5726 ft 249 kts 343°
2026-04-19 03:40 -33.79186 151.27476 5485 ft 248 kts 343°
2026-04-19 03:40 -33.77543 151.26874 5222 ft 246 kts 343°
2026-04-19 03:40 -33.75922 151.26275 4975 ft 242 kts 343°
2026-04-19 03:40 -33.74344 151.25692 4680 ft 234 kts 343°
2026-04-19 03:41 -33.72823 151.25136 4360 ft 227 kts 343°
2026-04-19 03:41 -33.71367 151.24420 4040 ft 228 kts 323°
2026-04-19 03:41 -33.70400 151.22949 3717 ft 228 kts 288°
2026-04-19 03:41 -33.70268 151.21082 3395 ft 227 kts 255°
2026-04-19 03:42 -33.70819 151.19289 3066 ft 230 kts 243°
2026-04-19 03:42 -33.71483 151.17568 2983 ft 222 kts 243°
2026-04-19 03:42 -33.72119 151.15952 2979 ft 205 kts 240°
2026-04-19 03:42 -33.72970 151.14659 2973 ft 193 kts 214°
2026-04-19 03:43 -33.74126 151.13924 3036 ft 188 kts 194°
2026-04-19 03:43 -33.75402 151.13783 2990 ft 184 kts 172°
2026-04-19 03:43 -33.76654 151.14093 2969 ft 182 kts 167°
2026-04-19 03:43 -33.77902 151.14415 2985 ft 183 kts 166°
2026-04-19 03:44 -33.79101 151.14724 2967 ft 170 kts 166°
2026-04-19 03:44 -33.80230 151.15015 2912 ft 161 kts 166°
2026-04-19 03:44 -33.81302 151.15292 2777 ft 160 kts 166°
2026-04-19 03:44 -33.82382 151.15572 2569 ft 153 kts 167°
2026-04-19 03:45 -33.83395 151.15834 2364 ft 144 kts 166°
2026-04-19 03:45 -33.84362 151.16084 2204 ft 143 kts 166°
2026-04-19 03:45 -33.85313 151.16331 1997 ft 136 kts 167°
2026-04-19 03:45 -33.86211 151.16564 1836 ft 134 kts 168°
2026-04-19 03:46 -33.87120 151.16799 1652 ft 133 kts 168°
2026-04-19 03:46 -33.88024 151.17033 1467 ft 132 kts 168°
2026-04-19 03:46 -33.88924 151.17266 1295 ft 131 kts 168°
2026-04-19 03:46 -33.89816 151.17497 1118 ft 131 kts 168°
2026-04-19 03:47 -33.90706 151.17731 948 ft 131 kts 168°
2026-04-19 03:47 -33.91591 151.17975 769 ft 130 kts 167°
2026-04-19 03:47 -33.92461 151.18210 592 ft 130 kts 169°
2026-04-19 03:47 -33.93364 151.18424 388 ft 130 kts 169°
2026-04-19 03:48 -33.94197 151.18625 213 ft 130 kts 168°
2026-04-19 03:48 -33.95087 151.18865 59 ft 130 kts 167°
2026-04-19 03:48 -33.95886 151.19077 28 ft 97 kts 169°
2026-04-19 03:48 -33.96383 151.19183 27 ft 48 kts 171°
2026-04-19 03:49 -33.96654 151.19196 28 ft 30 kts 194°
2026-04-19 03:49 -33.96684 151.19081 30 ft 15 kts 324°
2026-04-19 03:49 -33.96580 151.19047 30 ft 17 kts 347°
2026-04-19 03:49 -33.96459 151.19013 30 ft 19 kts 347°
2026-04-19 03:50 -33.96318 151.18980 30 ft 22 kts 348°
2026-04-19 03:50 -33.96160 151.18937 30 ft 25 kts 348°
2026-04-19 03:50 -33.95983 151.18891 30 ft 27 kts 347°
2026-04-19 03:50 -33.95787 151.18839 30 ft 30 kts 349°
2026-04-19 03:51 -33.95610 151.18797 30 ft 21 kts 348°
2026-04-19 03:51 -33.95461 151.18758 30 ft 23 kts 349°
2026-04-19 03:51 -33.95296 151.18712 30 ft 26 kts 343°
2026-04-19 03:51 -33.95155 151.18587 30 ft 25 kts 316°
2026-04-19 03:52 -33.95123 151.18399 30 ft 26 kts 259°
2026-04-19 03:52 -33.95161 151.18181 30 ft 23 kts 258°
2026-04-19 03:52 -33.95168 151.18142 30 ft 2 kts 258°
2026-04-19 03:52 -33.95175 151.18098 30 ft 11 kts 259°
2026-04-19 03:53 -33.95180 151.17998 30 ft 13 kts 287°
2026-04-19 03:53 -33.95103 151.17944 30 ft 14 kts 349°
2026-04-19 03:53 -33.94996 151.17917 30 ft 17 kts 348°
2026-04-19 03:53 -33.94869 151.17884 30 ft 20 kts 348°
2026-04-19 03:54 -33.94723 151.17848 30 ft 23 kts 348°
2026-04-19 03:54 -33.94557 151.17808 30 ft 26 kts 347°
2026-04-19 03:54 -33.94376 151.17751 30 ft 28 kts 345°
2026-04-19 03:54 -33.94176 151.17688 29 ft 31 kts 346°
2026-04-19 03:55 -33.93977 151.17632 29 ft 24 kts 348°
2026-04-19 03:55 -33.93890 151.17556 29 ft 11 kts 267°
2026-04-19 03:55 -33.93895 151.17533 28 ft 0 kts 253°
2026-04-19 03:57 -33.93914 151.17455 27 ft 33 kts 253°
2026-04-19 03:57 -33.93981 151.17181 29 ft 30 kts 254°
2026-04-19 03:57 -33.94030 151.16974 30 ft 27 kts 253°
2026-04-19 03:58 -33.94082 151.16757 30 ft 27 kts 254°
2026-04-19 03:58 -33.94133 151.16533 30 ft 29 kts 254°
2026-04-19 03:58 -33.94164 151.16323 30 ft 22 kts 295°
2026-04-19 03:58 -33.94017 151.16286 30 ft 24 kts 12°
2026-04-19 03:59 -33.93890 151.16333 30 ft 18 kts 38°
2026-04-19 03:59 -33.93868 151.16445 30 ft 15 kts 81°
2026-04-19 03:59 -33.93862 151.16493 30 ft 2 kts 81°
2026-04-19 03:59 -33.93861 151.16500 30 ft 3 kts 82°
2026-04-19 04:00 -33.93859 151.16513 30 ft 2 kts 82°